Skip Page Navigation
NASA JPL Caltech
NASA Logo - Jet Propulsion Laboratory + View the NASA Portal
+ Near-Earth Object (NEO) Program
Search JPL
JPL Home Earth Solar System Stars & Galaxies Technology
JPL Solar System Dynamics
BODIES ORBITS EPHEMERIDES TOOLS PHYSICAL DATA DISCOVERY FAQ SITE MAP
JPL Small-Body Database Browser
Search: [ help ]  
8342 (1986 QN3)
Classification: Main-belt Asteroid          SPK-ID: 2008342
Ephemeris | Orbit Diagram | Orbital Elements | Physical Parameters ]

[ show orbit diagram ]
Orbital Elements at Epoch 2457000.5 (2014-Dec-09.0) TDB
Reference: JPL 11 (heliocentric ecliptic J2000)
 Element Value Uncertainty (1-sigma)   Units 
e .1450899892384668 5.0758e-08  
a 2.226312330829072 1.1352e-08 AU
q 1.903296698707616 1.1093e-07 AU
i 3.124524558943326 4.733e-06 deg
node 82.93467217905136 9.6091e-05 deg
peri 288.8599270288423 9.7613e-05 deg
M 159.6044225751942 1.8347e-05 deg
tp 2456462.577159555804
(2013-Jun-19.07715956)
5.9941e-05 JED
period 1213.326168757481
3.32
9.28e-06
2.541e-08
d
yr
n .2967050487080993 2.2693e-09 deg/d
Q 2.549327962950528 1.2999e-08 AU
  Orbit Determination Parameters
   # obs. used (total)      1067  
   data-arc span      13064 days (35.77 yr)  
   first obs. used      1979-06-22  
   last obs. used      2015-03-29  
   planetary ephem.      DE431  
   SB-pert. ephem.      SB431-BIG16  
   condition code      0  
   fit RMS      .50671  
   data source      ORB  
   producer      Otto Matic  
   solution date      2015-Apr-07 16:31:23  

Additional Information
 Earth MOID = .906146 AU 
 T_jup = 3.630 
[ show covariance matrix ]

Ephemeris | Orbit Diagram | Orbital Elements | Physical Parameters ]

Physical Parameter Table
Parameter Symbol Value Units Sigma Reference Notes
absolute magnitude H 14.3 mag n/a MPO236441  
diameter diameter 6.4 km n/a DASTCOM value unverified
geometric albedo albedo 0.0737   0.023 EAR-A-5-DDR-ALBEDOS-V1.0:IMPS IMPS quality code 2: from the PDS IMPS singleton file

Alternate Designations
 1986 QN3 = 1979 MB1 = 1981 AV2 
Ephemeris | Orbit Diagram | Orbital Elements | Physical Parameters ]
ABOUT SSD CREDITS/AWARDS PRIVACY/COPYRIGHT GLOSSARY LINKS
FirstGov 2015-May-29 14:23 UT
(server date/time)  
NASA Home Page
Site Manager:   Ryan S. Park
Webmaster  Alan B. Chamberlin